FW8630 Weather Reports


Display with metric or nautical units.
time (UTC)temp
F
wind
direction
speed
MPH
gust
MPH
rain 1hr
in
rain 24hr
in
rain mn
in
humidity
%
barometer
mb
20260904131529 61 241 4.0 12.0 0.00 0.19 0.07 86 1000.9
20260904130041 60 250 3.0 9.0 0.00 0.19 0.07 86 1001.0
20260904124528 60 238 2.0 10.0 0.00 0.19 0.07 88 1001.1
20260904123026 60 246 3.0 8.0 0.00 0.19 0.07 88 1001.2
20260904121524 59 252 3.0 8.0 0.00 0.19 0.07 87 1001.5
20260904120033 59 251 3.0 8.0 0.00 0.19 0.07 87 1001.7
20260904114525 59 238 3.0 8.0 0.00 0.19 0.07 86 1001.9
20260904113020 59 215 3.0 10.0 0.00 0.19 0.07 88 1001.9
20260904111518 59 232 3.0 10.0 0.00 0.19 0.07 91 1001.9
20260904110017 58 252 1.0 8.0 0.01 0.19 0.07 92 1002.0
20260904104524 59 277 2.0 7.0 0.01 0.19 0.07 92 1002.1
20260904103017 59 267 1.0 4.0 0.01 0.19 0.07 92 1002.0
20260904101515 59 268 1.0 6.0 0.02 0.19 0.07 92 1002.0
20260904100015 59 265 3.0 9.0 0.01 0.18 0.06 92 1002.3
20260904094513 59 262 1.0 5.0 0.01 0.18 0.06 92 1002.3
20260904093013 58 243 3.0 7.0 0.01 0.18 0.06 92 1002.5
20260904091519 58 237 2.0 5.0 0.00 0.17 0.06 92 1002.4
20260904090011 58 242 2.0 9.0 0.00 0.17 0.06 92 1002.6
20260904084511 58 246 2.0 5.0 0.00 0.17 0.06 92 1002.5
20260904083011 58 246 1.0 7.0 0.00 0.17 0.06 92 1002.6
20260904081511 58 264 1.0 7.0 0.02 0.17 0.06 92 1002.5
20260904080011 58 241 1.0 7.0 0.03 0.17 0.06 92 1002.5
20260904074509 59 259 2.0 6.0 0.03 0.17 0.06 92 1002.4
20260904073007 59 265 1.0 7.0 0.03 0.17 0.06 92 1002.6
20260904071509 59 257 1.0 5.0 0.02 0.16 0.04 92 1002.5
20260904070008 59 290 1.0 7.0 0.00 0.14 0.02 92 1002.4
20260904064504 58 248 0.0 4.0 0.00 0.14 0.02 92 1002.7
20260904063003 58 208 1.0 6.0 0.00 0.14 0.02 93 1002.4
20260904061602 58 245 1.0 4.0 0.00 0.14 0.02 93 1002.6
20260904060002 58 274 1.0 4.0 0.00 0.14 0.02 93 1002.6
20260904054557 0 321 0.0 2.0 0.00 0.14 0.02 1002.6
20260904053053 0 327 0.0 1.0 0.00 0.14 0.02 1002.6
20260904051551 57 327 0.0 0.0 0.00 0.14 0.02 92 1002.6
20260904050049 57 327 0.0 0.0 0.00 0.14 0.02 92 1002.8
20260904044553 0 327 0.0 1.0 0.00 0.14 0.02 1002.9
20260904043100 0 327 0.0 2.0 0.00 0.14 0.02 1002.9
20260904041536 0 355 0.0 0.0 0.00 0.14 0.02 1002.9
20260904040032 0 355 0.0 0.0 0.00 0.14 0.02 1002.9
20260904034527 0 355 0.0 0.0 0.00 0.14 0.02 1003.0
20260904033024 0 355 0.0 0.0 0.00 0.14 0.02 1002.9
20260904031518 0 355 0.0 0.0 0.00 0.14 0.02 1002.8
20260904030020 0 355 0.0 0.0 0.00 0.14 0.02 1002.7
20260904024514 57 355 0.0 0.0 0.00 0.14 0.02 91 1002.7
20260904023012 57 355 0.0 0.0 0.01 0.14 0.02 91 1002.9
20260904021520 58 5 2.0 5.0 0.01 0.14 0.02 91 1003.0
20260904020009 58 348 0.0 4.0 0.01 0.14 0.02 91 1003.3
20260904014508 58 325 1.0 3.0 0.01 0.14 0.02 91 1003.3
20260904013003 0 334 1.0 4.0 0.00 0.13 0.02 1003.5
20260904011557 0 336 1.0 4.0 0.00 0.13 0.02 1003.3
20260904003054 59 350 0.0 2.0 0.01 0.13 0.02 91 1003.2
20260903234551 60 298 0.0 0.0 0.01 0.13 0.01 91 1003.3
20260903233050 60 298 0.0 1.0 0.01 0.13 0.01 91 1003.5
20260903231546 60 298 0.0 2.0 0.00 0.12 0.00 91 1003.8
20260903230049 60 307 0.0 2.0 0.00 0.12 0.00 91 1004.0
20260903224543 60 286 0.0 3.0 0.00 0.12 0.00 91 1004.2
20260903223042 61 282 1.0 5.0 0.00 0.12 0.00 91 1004.3
20260903221540 60 279 0.0 3.0 0.00 0.12 0.00 91 1004.5
20260903220039 60 271 0.0 3.0 0.01 0.12 0.12 90 1004.6
20260903214542 60 270 0.0 3.0 0.02 0.12 0.12 90 1004.8
20260903213034 61 282 1.0 4.0 0.02 0.12 0.12 90 1005.0
20260903211535 60 191 0.0 1.0 0.02 0.12 0.12 90 1005.1
20260903210039 60 191 1.0 4.0 0.02 0.11 0.11 90 1005.4
20260903204530 60 188 1.0 4.0 0.00 0.09 0.09 90 1005.5
20260903203028 61 211 1.0 4.0 0.00 0.09 0.09 90 1005.7
20260903201526 61 200 1.0 5.0 0.00 0.09 0.09 90 1005.9
20260903200025 61 209 2.0 6.0 0.00 0.09 0.09 90 1006.1
20260903194524 61 202 2.0 8.0 0.00 0.09 0.09 90 1006.3
20260903193022 60 213 2.0 8.0 0.00 0.09 0.09 90 1006.4
20260903191520 60 211 2.0 6.0 0.00 0.09 0.09 90 1006.7
20260903190021 60 211 2.0 9.0 0.00 0.09 0.09 89 1007.0
20260903184517 60 218 3.0 7.0 0.01 0.09 0.09 89 1007.2
20260903183015 60 189 2.0 8.0 0.04 0.09 0.09 89 1007.5
20260903181512 60 191 2.0 9.0 0.04 0.09 0.09 89 1007.7
20260903180011 60 183 1.0 6.0 0.05 0.09 0.09 88 1007.8
20260903174510 60 209 2.0 8.0 0.05 0.09 0.09 88 1007.9
20260903173016 59 192 1.0 10.0 0.03 0.06 0.06 88 1008.2
20260903171506 60 196 2.0 7.0 0.04 0.06 0.06 88 1008.4
20260903170009 59 188 3.0 13.0 0.03 0.05 0.05 88 1008.6
20260903164502 60 195 3.0 12.0 0.02 0.04 0.04 89 1008.7
20260903163100 60 216 5.0 11.0 0.02 0.02 0.02 89 1008.9
20260903161558 60 178 3.0 8.0 0.01 0.02 0.02 89 1009.1
20260903160057 61 202 4.0 13.0 0.01 0.02 0.02 89 1009.3
20260903154557 61 223 6.0 15.0 0.01 0.02 0.02 89 1009.4
20260903153055 62 224 5.0 12.0 0.01 0.01 0.01 89 1009.7
20260903151553 61 178 3.0 9.0 0.01 0.01 0.01 90 1009.9
20260903150051 60 183 2.0 6.0 0.01 0.01 0.01 92 1010.0
20260903144550 60 189 2.0 5.0 0.01 0.01 0.01 93 1010.2
20260903143105 60 166 2.0 6.0 0.00 0.00 0.00 94 1010.4
20260903141547 61 173 3.0 8.0 0.00 0.00 0.00 94 1010.5
20260903140045 60 198 3.0 8.0 0.00 0.00 0.00 93 1010.7
20260903134543 60 196 4.0 12.0 0.00 0.00 0.00 93 1010.9
20260903133043 60 195 3.0 8.0 0.00 0.00 0.00 93 1011.0